{"data":{"norad_id":66044,"epoch":"2026-09-20T15:28:26.539968Z","epoch_age_seconds":127831,"freshness":"FRESH","line1":"1 66044U 25233M   26263.64475162  .00000077  00000+0  10111-3 0  9999","line2":"2 66044  89.0058  33.4550 0001710 101.3250 258.8093 13.51028663 46126","mean_motion":13.51028663,"eccentricity":0.000171,"inclination_deg":89.0058,"raan_deg":33.455,"arg_perigee_deg":101.325,"mean_anomaly_deg":258.8093,"bstar":0.00010111,"rev_number":4612,"period_min":106.58545147387,"perigee_km":1067.2028891761,"apogee_km":1069.749630911,"semimajor_km":7446.6132600435,"source":"CELESTRAK","updated_at":"2026-09-21T09:00:15.734432Z"}}